Simultaneous Nadir Overpasses (SNOs) Predictions

Prediction of SNOs between FY3D and METOP-C Satellite Orbit:

Table of predicted SNOs for the next 14.0 days since TLE Epoch: 8/15/2020
Index Date (FY3D) Time (FY3D) Lat,Lon (FY3D) SZA (FY3D ) Date (METOP-C) Time (METOP-C) Lat,Lon (METOP-C) SZA (METOP-C ) Distance(km) Time Diff (sec)
1 08/21/2020 17:57:08 -73.76, 81.82 117.85 08/21/2020 17:58:14 -73.71, 84.67 118.04 89.01 66
2 08/21/2020 18:47:50 73.59,-110.47 61.97 08/21/2020 18:48:58 73.53,-108.43 61.81 64.68 68
3 08/21/2020 19:38:31 -73.46, 57.15 118.16 08/21/2020 19:39:41 -73.44, 58.71 118.26 49.42 70
4 08/21/2020 20:29:13 73.29,-135.15 61.67 08/21/2020 20:30:25 73.25,-134.38 61.58 24.93 72
5 08/21/2020 21:19:55 -73.21, 32.34 118.41 08/21/2020 21:21:08 -73.17, 32.76 118.49 14.12 73
6 08/21/2020 22:10:38 73.09,-160.07 61.47 08/21/2020 22:11:50 73.08,-160.10 61.45 1.18 72
7 08/21/2020 23:01:22 -73.11, 7.20 118.50 08/21/2020 23:02:31 -73.10, 7.26 118.53 2.36 69
8 08/21/2020 23:52:07 73.08, 174.56 61.49 08/21/2020 23:53:11 73.11, 174.62 61.50 3.21 64
9 08/22/2020 00:42:50 -73.05, -18.06 118.54 08/22/2020 00:43:53 -73.07, -18.12 118.52 3.14 63
10 08/22/2020 01:33:36 73.08, 149.20 61.51 08/22/2020 01:34:33 73.08, 149.23 61.50 1.13 57
11 08/22/2020 02:24:19 -73.05, -43.42 118.51 08/22/2020 02:25:15 -73.05, -43.51 118.52 2.92 56
12 08/22/2020 03:15:05 73.08, 123.83 61.53 08/22/2020 03:15:55 73.06, 123.84 61.50 1.92 50
13 08/22/2020 04:05:48 -73.05, -68.79 118.49 08/22/2020 04:06:36 -73.08, -68.79 118.47 3.38 48
14 08/22/2020 04:56:34 73.08, 98.46 61.55 08/22/2020 04:57:16 73.09, 98.56 61.55 3.40 42
15 08/22/2020 05:47:17 -73.05, -94.15 118.47 08/22/2020 05:47:58 -73.06, -94.18 118.47 1.44 41
16 08/22/2020 06:38:03 73.07, 73.10 61.57 08/22/2020 06:38:38 73.07, 73.17 61.56 2.45 35
17 08/22/2020 07:28:46 -73.04,-119.52 118.45 08/22/2020 07:29:20 -73.03,-119.57 118.47 1.97 34
18 08/22/2020 08:19:31 73.02, 47.84 61.54 08/22/2020 08:20:00 73.04, 47.78 61.56 3.21 29
19 08/22/2020 09:10:15 -73.04,-144.88 118.43 08/22/2020 09:10:41 -73.06,-144.85 118.42 2.52 26
20 08/22/2020 10:01:00 73.02, 22.48 61.56 08/22/2020 10:01:22 73.02, 22.39 61.56 2.75 22
21 08/22/2020 10:51:44 -73.04,-170.25 118.41 08/22/2020 10:52:03 -73.04,-170.24 118.41 0.40 19
22 08/22/2020 11:42:29 73.02, -2.89 61.58 08/22/2020 11:42:43 73.05, -2.89 61.61 3.61 14
23 08/22/2020 12:33:13 -73.04, 164.38 118.39 08/22/2020 12:33:25 -73.02, 164.37 118.41 2.26 12
24 08/22/2020 13:23:58 73.01, -28.25 61.60 08/22/2020 13:24:05 73.03, -28.28 61.61 1.53 7
25 08/22/2020 14:14:42 -73.04, 139.02 118.37 08/22/2020 14:14:46 -73.05, 139.09 118.36 2.68 4
26 08/22/2020 15:05:27 73.01, -53.62 61.62 08/22/2020 15:05:27 73.00, -53.66 61.62 1.75 0
27 08/22/2020 15:56:11 -73.03, 113.65 118.35 08/22/2020 15:56:08 -73.02, 113.71 118.36 2.03 3
28 08/22/2020 16:46:56 73.01, -78.98 61.64 08/22/2020 16:46:48 73.03, -78.94 61.66 2.74 8
29 08/22/2020 17:37:39 -72.98, 88.40 118.38 08/22/2020 17:37:30 -73.00, 88.32 118.36 3.38 9
30 08/22/2020 18:28:25 73.01,-104.35 61.66 08/22/2020 18:28:10 73.01,-104.33 61.67 0.55 15
31 08/22/2020 19:19:08 -72.98, 63.03 118.36 08/22/2020 19:18:52 -72.98, 62.93 118.35 3.28 16
32 08/22/2020 20:09:54 73.00,-129.71 61.69 08/22/2020 20:09:32 72.98,-129.72 61.67 2.13 22
33 08/22/2020 21:00:37 -72.98, 37.67 118.34 08/22/2020 21:00:13 -73.01, 37.65 118.30 3.38 24
34 08/22/2020 21:51:23 73.00,-155.08 61.71 08/22/2020 21:50:53 73.01,-155.00 61.72 2.82 30
35 08/22/2020 22:42:06 -72.97, 12.30 118.32 08/22/2020 22:41:35 -72.98, 12.26 118.30 1.65 31
36 08/22/2020 23:32:51 73.00, 179.55 61.73 08/22/2020 23:32:14 72.99, 179.61 61.72 2.06 37
37 08/23/2020 00:23:34 -72.97, -13.07 118.30 08/23/2020 00:22:56 -72.96, -13.13 118.30 2.28 38
38 08/23/2020 01:14:19 72.95, 154.30 61.69 08/23/2020 01:13:36 72.97, 154.22 61.73 3.39 43
39 08/23/2020 02:05:03 -72.97, -38.43 118.28 08/23/2020 02:04:17 -72.99, -38.41 118.25 2.34 46
40 08/23/2020 02:55:48 72.94, 128.93 61.71 08/23/2020 02:54:58 72.94, 128.83 61.73 3.23 50
41 08/23/2020 03:46:32 -72.97, -63.80 118.25 08/23/2020 03:45:39 -72.97, -63.79 118.25 0.08 53
42 08/23/2020 04:37:17 72.94, 103.57 61.74 08/23/2020 04:36:19 72.97, 103.55 61.78 3.43 58
43 08/23/2020 05:28:01 -72.96, -89.16 118.23 08/23/2020 05:27:01 -72.94, -89.18 118.24 2.38 60
44 08/23/2020 06:18:46 72.94, 78.20 61.76 08/23/2020 06:17:41 72.95, 78.16 61.78 1.65 65
45 08/23/2020 07:09:30 -72.96,-114.53 118.21 08/23/2020 07:08:22 -72.97,-114.46 118.19 2.37 68
46 08/23/2020 08:00:15 72.94, 52.84 61.78 08/23/2020 07:59:03 72.93, 52.78 61.78 2.27 72
47 08/23/2020 08:50:59 -72.96,-139.89 118.19 08/23/2020 08:49:44 -72.95,-139.85 118.19 1.82 75
48 08/23/2020 09:41:40 72.73, 27.90 61.58 08/23/2020 09:40:28 72.75, 27.07 61.65 27.36 72
49 08/23/2020 10:32:23 -72.70,-164.73 118.44 08/23/2020 10:31:11 -72.67,-165.76 118.41 34.47 72
50 08/23/2020 11:23:04 72.48, 3.05 61.33 08/23/2020 11:21:55 72.47, 1.16 61.43 63.14 69
51 08/23/2020 12:13:46 -72.40, 170.52 118.75 08/23/2020 12:12:38 -72.40, 168.34 118.64 73.50 68
52 08/23/2020 13:04:28 72.22, -21.81 61.08 08/23/2020 13:03:22 72.19, -24.72 61.20 99.05 66
